Home   Weather   Kampala   Past weeks

Flag for Uganda Past Weather in Kampala, Uganda — Yesterday and Last 2 Weeks

Now
64 °F

Thunderstorms. Mostly cloudy.


Feels Like: 64 °F
Forecast: 63 / 76 °F
Wind: 8 mph from Northeast

Location: Entebbe Airport

Current Time: Sep 26, 2016 at 10:14:25 AM

Latest Report: Sep 26, 2016 at 9:00 AM


Visibility: 3 mi

Pressure: 30.12 "Hg (26.07 "Hg at 1230m altitude)

Humidity: 100%

Dew Point: 64 °F

Location of KampalaLocation

Past Weather in Kampala — Graph

°F

Kampala Temperature Yesterday

Maximum temperature yesterday: 79 °F (at 12:00 PM)
Minimum temperature yesterday: 66 °F (at 12:00 AM)
Average temperature yesterday: 73 °F

High & Low Weather Summary for the Past Weeks

 TemperatureHumidityPressure
High86 °F (Sep 14, 3:00 PM)100% (Sep 19, 3:00 AM)30.27 "Hg (Sep 19, 3:00 AM)
Low57 °F (Sep 24, 11:00 PM)49% (Sep 14, 3:00 PM)29.92 "Hg (Sep 25, 4:00 PM)
Average73 °F79%30.05 "Hg
* Reported Sep 11 8:00 AM — Sep 26 8:00 AM, Kampala, Weather by CustomWeather, © 2016

Note: Actual official high and low records may vary slightly from our data, if they occured in-between our weather recording intervals... More about our weather records

Advertising

Kampala Weather History for the Previous 24 Hours

Scroll right to see more
 ConditionsComfort  
Time TempWeatherWind HumidityBarometerVisibility
8:00 AM
Mon, Sep 26
66 °FThunderstorms. Mostly cloudy.17 mph94%30.04 "Hg3 mi
7:00 AM70 °FThunderstorms. Cloudy.9 mph94%30.01 "Hg5 mi
6:00 AM70 °FMild.5 mph94%29.98 "Hg5 mi
5:00 AM72 °FPassing clouds.5 mph94%29.98 "Hg6 mi
4:00 AM72 °FPassing clouds.3 mph94%29.98 "Hg6 mi
3:00 AM72 °FPassing clouds.6 mph94%29.98 "Hg6 mi
2:00 AM73 °FPassing clouds.No wind89%29.98 "HgN/A
9:00 PM
Sun, Sep 25
75 °FPassing clouds.3 mph78%29.92 "HgN/A
8:00 PM73 °FPassing clouds.9 mph83%29.95 "HgN/A
7:00 PM75 °FPassing clouds.9 mph78%29.92 "HgN/A
6:00 PM77 °FPassing clouds.8 mph74%29.92 "HgN/A
5:00 PM79 °FScattered clouds.14 mph74%29.92 "HgN/A
4:00 PM79 °FPassing clouds.8 mph74%29.92 "HgN/A
3:00 PM79 °FThunderstorms. Cloudy.14 mph74%29.95 "Hg6 mi
2:00 PM79 °FPassing clouds.12 mph70%30.01 "Hg6 mi
1:00 PM79 °FScattered clouds.10 mph74%30.04 "Hg6 mi
12:00 PM79 °FPassing clouds.9 mph74%30.07 "Hg6 mi
11:00 AM77 °FPassing clouds.8 mph74%30.07 "Hg6 mi
10:00 AM77 °FPassing clouds.7 mph69%30.09 "Hg6 mi
Weather by CustomWeather, © 2016

See weather overviewHow to use our weather pages